Location: ??????
(42.0089°N, 44.3281°E)
Time: 12:13:15
(UTC+00:00)

Cosmos 2251 Rocket - Pass Details

Date: 04 June 2022
Orbit: 764 x 791 km, 74.0° (Epoch: 01 July)

Event Time Altitude Azimuth Distance (km) Brightness Sun altitude
Rises 20:20:30 0° 356° (N) 3,254 8.1 -24.8°
Reaches altitude 10° 20:24:07 10° 21° (NNE) 2,328 6.8 -24.9°
Maximum altitude 20:26:51 14° 52° (NE) 2,057 6.0 -25.0°
Drops below altitude 10° 20:29:36 10° 84° (E) 2,331 6.0 -25.1°
Enters shadow 20:30:30 - 92° (E) 2,520 6.1 -25.1°
